Torna al catalogo

STARLINK-35527

AttivoComunicazioniVLEO
NORAD 66092·PAYLOAD·🇺🇸 United States

Lanciato Oct 19, 2025 da Vandenberg Space Force Base

Loading…

Prossimi Passaggi (prossime 24 ore)

TLE

AggiornatoSource: CelesTrak SupGP

Epoca: Sep 14, 2026, 22:52 UTC

1 66092C 25236G   26257.95326389  .00047472  00000+0  14029-2 0  2576
2 66092  53.1584 301.2970 0001214  84.3632 165.9256 15.34360210    17

Traccia STARLINK-35527 in tempo reale con AllMySat

Download on the App Store